UmKA 1 (RS40S)
1 57172U 23091G   26046.83936164  .00008494  00000-0  40516-3 0  9999
2 57172  97.5233 106.0347 0013364 176.6984 183.4340 15.19254021145577
CubeBel-2 (EU11S)
1 57175U 23091K   26046.81031772  .00014588  00000-0  56767-3 0  9997
2 57175  97.5227 109.1217 0010730 176.4484 183.6832 15.26064159145779
RS-38S
1 57189U 23091Z   26046.88659549  .00020131  00000-0  65448-3 0  9994
2 57189  97.5253 114.2274 0008805 138.6893 221.5016 15.31898861146090
SONATE-2
1 59112U 24043Q   26046.39246888  .00041969  00000-0  75796-3 0  9993
2 59112  97.5365 190.2854 0008009 291.4122  68.6274 15.49578872108976
MO-122
1 60209U 24125G   26046.59240708  .00045450  00000-0  76359-3 0  9995
2 60209  97.2478 262.2333 0011922 312.6046  47.4200 15.51563179 90643
GRBBeta
1 60237U 24128C   26046.79112197  .00005048  00000-0  35282-3 0  9990
2 60237  61.9897 281.8538 0053355 109.8806 250.8047 15.05521574 87981
Curium One
1 60242U 24128H   26046.77600953  .00010152  00000-0  60832-3 0  9997
2 60242  61.9782 275.1269 0053239 106.7987 253.8958 15.10320637 88106
ROBUSTA-3A
1 60243U 24128J   26046.80923496  .00009677  00000-0  59126-3 0  9996
2 60243  61.9860 276.8446 0053815 104.2426 256.4653 15.09634521 88086
CatSat
1 60246U 24125J   26046.57396491  .00048843  00000-0  96517-3 0  9992
2 60246  97.2241 258.5051 0028121 271.9586  87.8444 15.46546350 88520
HYPERVIEW-1G (RS66S)
1 61772U 24199AP  26046.89696453  .00069025  00000-0  10202-2 0  9995
2 61772  97.3134 282.4457 0009604  14.1100 346.0421 15.55046899115717
AO-123
1 61781U 24199AY  26046.89134819  .00011695  00000-0  36117-3 0  9992
2 61781  97.3193 276.6813 0015168  29.5583 330.6514 15.33585302115322
JINJUSat 1B
1 63210U 25052A   26046.68474240  .00019528  00000-0  68816-3 0  9996
2 63210  97.4161 303.5407 0004579 131.1631 229.0005 15.29315666 51508
NUSHSAT 1
1 63211U 25052B   26046.75662245  .00024393  00000-0  81884-3 0  9995
2 63211  97.4141 303.8435 0004382 132.4273 227.7339 15.30851087 51531
TEVEL2-4
1 63213U 25052D   26046.65967404  .00022416  00000-0  77407-3 0  9991
2 63213  97.4062 303.1535 0003192 139.5916 220.5562 15.29953538 51507
TEVEL2-5
1 63214U 25052E   26046.21112362  .00023028  00000-0  79815-3 0  9994
2 63214  97.4060 302.6838 0003125 140.0787 220.0684 15.29827956 51431
TEVEL2-6
1 63215U 25052F   26046.48197589  .00023341  00000-0  80975-3 0  9995
2 63215  97.4064 302.9403 0003179 140.4951 219.6522 15.29795538 51472
TEVEL2-1
1 63217U 25052H   26046.60519652  .00021217  00000-0  74535-3 0  9995
2 63217  97.4038 302.8162 0002774 152.6521 207.4865 15.29406318 51485
TEVEL2-3
1 63218U 25052J   26046.66868298  .00021461  00000-0  75307-3 0  9994
2 63218  97.4041 302.8894 0002773 153.3448 206.7935 15.29440447 51499
TEVEL2-2
1 63219U 25052K   26046.67130685  .00021196  00000-0  74453-3 0  9994
2 63219  97.4038 302.8832 0002768 154.3874 205.7503 15.29409873 51494
TEVEL2-9
1 63237U 25052AD  26046.50453402  .00021998  00000-0  81212-3 0  9992
2 63237  97.4103 302.3239 0005514 197.3484 162.7568 15.27759063 51422
TEVEL2-7
1 63238U 25052AE  26046.26380807  .00020931  00000-0  77790-3 0  9996
2 63238  97.4106 302.0435 0005530 198.9418 161.1616 15.27548842 51386
TEVEL2-8
1 63239U 25052AF  26046.27049664  .00020771  00000-0  77255-3 0  9999
2 63239  97.4102 302.0321 0005486 199.7748 160.3280 15.27525441 51380
HYDRA-W
1 63490U 25052BL  26046.17145298  .00111614  00000-0  16320-2 0  9999
2 63490  97.3985 306.4429 0005899 153.8616 206.2937 15.55214251 51684
HADES-ICM (SO-125)
1 63492U 25052BN  26046.21994294  .00135330  00000-0  22926-2 0  9994
2 63492  97.4004 305.9522 0005459 167.9986 192.1397 15.51035688 51656
RSP-03
1 65732U 98067XL  26046.72904946  .05404537  12174-4  11945-2 0  9991
2 65732  51.6084 157.7974 0007960 327.1992  32.8535 16.29510775 23468
BOTAN
1 65942U 98067XP  26046.57727137  .00486963  10068-3  15961-2 0  9991
2 65942  51.6166 166.6675 0008759 330.3659  29.6849 15.89938548 20075
CEVROSAT1
1 66309U 25248S   26046.40154363  .00005824  00000-0  28636-3 0  9996
2 66309  45.4040  54.0416 0001914  69.1963 290.9128 15.19002355 15987
SPIRONE
1 66657U 25274H   26046.76823412  .00003167  00000-0  31013-3 0  9999
2 66657  97.7433 337.8920 0013903  61.6231 298.6388 14.92924648 12109
K-HERO
1 66660U 25274L   26046.80847495  .00003132  00000-0  30305-3 0  9990
2 66660  97.7436 337.9994 0015767  65.2825 295.0034 14.93389236 12116
SNUGLITE-III DURI
1 66661U 25274M   26046.80169527  .00002582  00000-0  25017-3 0  9996
2 66661  97.7432 338.0052 0016254  66.1769 294.1152 14.93487100 12119
SilverSat
1 66909U 98067XV  26046.59711626  .00152984  00000-0  15099-2 0  9990
2 66909  51.6265 177.3802 0003132 311.6381  48.4346 15.64897678 11728
SAKHACUBE-CHOLBON
1 67290U 25313AU  26046.73278663  .00012673  00000-0  55096-3 0  9995
2 67290  97.4056 123.4479 0010886  67.7029 292.5361 15.22354450  7489
QMR-KWT
1 67291U 25313AV  26046.79337725  .00017165  00000-0  73650-3 0  9994
2 67291  97.4055 123.5189 0010508  66.8171 293.4171 15.22737704  7494
IO-86
1 40931U          25360.30710720  .00000000  00000-0  12800-3 0    00
2 40931   6.0006 332.5373 0012733 338.8432   8.1437 14.79075515    01
